IRIDIUM 166

Last updated on Tue Sep 22 2026 00:03:21 GMT+0000 (Coordinated Universal Time)

1 43570U 18061B 26264.57558460 .00000058 00000+0 13627-4 0 9990 2 43570 86.4013 16.4384 0002078 95.4240 264.7193 14.34216987427213
UTC large
Height (km)
Speed (km/s)
/
Latitude / Longitude
Inclination (degrees)
Orbital Period (minutes)
Azimuth
Elevation
Range (km)
Doppler Factor

Next 0 passes for location: London (51.5072 / 0.1276)

No passes found over London.
IRIDIUM 166